Aéroport int. de Victoria, Colombie-Britannique

Conditions des dernières 24 heures

Date / Heure
(HAP)
Conditions Temp
(°F)
Humidité
(%)
Point de rosée
(°F)
Vent
(mph)
Pression (pouces) Visibilité
(miles)
21 octobre 2014
20:00 Pluie faible 55 87 51 SSE 11 29.7 20
19:00 Pluie faible 54 91 51 SE 11 29.7 15
18:00 Pluie faible 54 92 52 SE 13 29.8 12
17:00 Généralement nuageux 54 91 52 SE 12 29.8 30
16:00 Généralement nuageux 56 85 51 SE 12 29.8 30
15:00 Généralement nuageux 58   82 52 SE 7 29.8 30
14:00 Généralement nuageux 58   82 53 SSE 13 29.8 30
13:00 Généralement nuageux 56 86 52 SE 13 29.8 30
12:00 Généralement nuageux 55 90 52 SE 11 29.9 30
11:00 Généralement nuageux 55 86 51 SE 14 29.9 30
10:00 Partiellement nuageux 55 85 51 SE 12 29.8 30
9:00 Généralement nuageux 53 89 50 SSE 5 29.8 20
8:00 Généralement nuageux 52 94 51 ESE 5 29.8 12
7:00 Pluie faible 53 95 51 ENE 9 29.8 5
6:00 Brume 53 95 51 E 7 29.8 5
5:00 Brume 51   98 51 E 7 29.8 5
4:00 Pluie faible 52 97 52 ESE 7 29.7 3
3:00 Brume 53 96 52 E 7 29.8 3
2:00 Brume 53 96 52 S 7 29.8 1
1:00 Généralement nuageux 53 96 51 ESE 4 29.7 12
0:00 Généralement nuageux 53 93 51 ESE 7 29.7 30
20 octobre 2014
23:00 Partiellement nuageux 54 92 52 SSE 7 29.7 30
22:00 Partiellement nuageux 54 96 53 SE 6 29.7 20
21:00 Pluie faible 55 95 53 ESE 4 29.7 15
20:00 Généralement nuageux 55 96 54 S 3 29.7 20
N.D. non disponible
↑ température la plus haute
↓ température la plus basse

Si vous désirez plus de données historiques sur les conditions météo, s.v.p. visitez Données climatologiques en ligne.

Date de modification :